Torna al catalogo

COSMOS 2251 DEB

AttivoLEO
NORAD 36451·DEBRIS·🇷🇺 Russia

Lanciato Jun 16, 1993 da Plesetsk Cosmodrome

Loading…

Prossimi Passaggi (prossime 24 ore)

TLE

In scadenzaSource: Space-Track

Epoca: Sep 12, 2026, 05:05 UTC

1 36451U 93036BBA 26255.21204917  .00001379  00000-0  56188-3 0  9997
2 36451  73.9522 203.8999 0183517 327.6367  31.3621 14.19708916881052

Traccia COSMOS 2251 DEB in tempo reale con AllMySat

Download on the App Store